User: anonymous   Login
Location: UBC Liquid-Mirror Observatory
(49.2876°N, 122.5728°W)
Time: 11:38:51
(UTC-08:00)
Language:

Cosmos 1743 Rocket - Orbit

View from above orbital plane
View from above orbital plane
View from above satellite
View from above satellite

Ground track
Ground track

The orbit data is extracted from the following two-line orbital elements,

1 16720U 86034B   18022.56842059  .00000057  00000-0  39412-5 0  9995
2 16720  82.5524  36.9666 0021803  97.3204  24.0221 14.83321117711785
Epoch (UTC): 22 January 2018 13:38:31
Eccentricity: 0.0021803
inclination: 82.5524°
perigee height: 603 km
apogee height: 634 km
right ascension of ascending node: 36.9666°
argument of perigee: 97.3204°
revolutions per day: 14.83321117
mean anomaly at epoch: 24.0221°
orbit number at epoch: 71178

The dashed part of the orbit path shows where the satellite is in the earth's shadow,  

DLR